Location: Buffign�court
(47.8126°N, 6.0176°E)
Time: 19:55:16
(UTC+00:00)

GP-B - Pass Details

Date: 16 June 2021
Orbit: 631 x 635 km, 89.8° (Epoch: 31 July)

Event Time Altitude Azimuth Distance (km) Brightness Sun altitude
Rises 23:28:53 0° 4° (N) 2,946 8.2 -18.8°
Reaches altitude 10° 23:31:09 10° 9° (N) 2,032 6.9 -18.8°
Maximum altitude 23:35:34 59° 89° (E) 739 3.4 -18.8°
Enters shadow 23:37:05 37° 150° (SSE) 984 3.6 -18.8°
